Find Starlink 31218

NORAD ID: 58895 Int'l Des: 2024-020 Owner: SPXS Country: US Constellation: starlink operational
LEOCIRCULAR

リアルタイム位置

3D地球を読み込み中...

Starlink 31218について

説明を読み込み中...

次回通過

Passes for default location (London). Set your location on the main map for personalized predictions.

高度履歴

Loading altitude history...

軌道要素

1 58895U 24020V 26120.25002315 .00031635 00000-0 10275-2 0 9997
2 58895 53.1592 83.0458 0001324 83.9620 272.0257 15.31681316 5609
Epoch: Apr 30, 2026 • Age: 9 hours

現在のステータス

高度 471.1 km
速度 7.63 km/s
衛星直下点 22.37°N, 167.38°E
打ち上げ日 Jan 29, 2024
運用期間 2.2 years
タイプ internet

技術仕様

分類 Payload
質量 730.00 kg
乾燥質量 700.00 kg
総質量 730.00 kg
長さ 0.30 m
直径 4.10 m
スパン 29.00 m
形状 Box + pan
製造者 SPXS
バスタイプ Starlink V2M
フェーズステータス In Orbit
所有者/国 SPXS/US

Most Searched